User: anonymous   Login
Location: Ash Swamp
(41.5170°N, 74.6157°W)
Time: 08:23:00
(UTC+00:00)
Language:

Cosmos 1908 Rocket - Orbit

View from above orbital plane
View from above orbital plane
View from above satellite
View from above satellite

Ground track
Ground track

The orbit data is extracted from the following two-line orbital elements,

1 18749U 88001B   20273.04188243  .00000097  00000-0  89836-5 0  9995
2 18749  82.5114 260.5553 0017724 320.7782  99.4100 14.83227800768322
Epoch (UTC): 29 September 2020 01:00:18
Eccentricity: 0.0017724
inclination: 82.5114°
perigee height: 607 km
apogee height: 631 km
right ascension of ascending node: 260.5553°
argument of perigee: 320.7782°
revolutions per day: 14.83227800
mean anomaly at epoch: 99.4100°
orbit number at epoch: 76832

The dashed part of the orbit path shows where the satellite is in the earth's shadow,  

DLR